DELTA 1 DEB, 7129

Orbit data source: Space-Track

DELTA 1 DEB, 7129 is space debris in SSO originally from a launch on Tue, 06 Nov 1973 UTC launched from the Air Force Western Test Range (AFWTR). Debris objects in space refer to the collection of defunct objects orbiting the Earth. Examples of debris include non-operational satellites, rocket bodies, and fragments generated from explosions, collisions, or faulty payload assembly.

Loading next visibility...
Identifier
7129, 1973-086CT
Orbit
SSO
Country
Flag of USUS
Related business
Manufacturer
Unknown
Mission
Spacecraft
Bus & Motor
Unknown
Mass
Unknown
Launch date (UTC)
1973-11-06 (52 years ago)
Launch vehicle
Unknown
Launch site
Air Force Western Test Range (AFWTR)
Object type
Payload
Rocket body
Debris
Shape & HBR
Unknown shape, 0.2 m
Radar Cross Section
Small (<0.1 m²)

Expand to show TLE details & history
Last TLE update: 2 days ago

TLE from 2 days ago
0 DELTA 1 DEB
1 07129U 73086CT  26032.55070453 -.00000317  00000-0 -29512-2 0  9999
2 07129 102.0458 259.3596 0249158 214.5628 176.8649 12.04441807291023
Epoch: 2026-02-01T13:13Z
TLE epoch observation values (Epoch: 2026-02-01T13:13:00.871Z)
Latitude
30.856°
Longitude
-77.94293°
Altitude
1,864.64 km
Speed
6.871 km/s
True Right ascension
16h 48m 16s
True Declination
30° 43' 30"
Sunlit
Object was in daylight at epoch
Visualization orbit readout
Latitude
Unknown
Longitude
Unknown
Altitude
Unknown
Speed
Unknown
Apparent Right ascension
Unknown
Apparent Declination
Unknown
Sunlit
N/A
Visualization observer readout
Local Sidereal Time
01:44:50
Azimuth
Unknown
Elevation
Unknown
Doppler factor
Unknown
Orbital elements
Apogee altitude
1,858.9 km
Perigee altitude
1,458.413 km
Semi-major axis
8,036.793 km
Eccentricity
0.02492
Inclination
102.0458°
RAAN
259.3596°
Arg. of periapsis
214.5628°
True anomaly
177.01633°
Mean anomaly
176.8649°
Eccentric anomaly
176.94108°
Mean motion
3.01244 °/min
Orbital period
119.5 mins
BSTAR
-0.0029512
Loading maneuver chart data...
Computing Atmospheric mass density...
Loading historical data...
Loading historical data...
Loading historical data...
Loading historical data...
Loading historical data...
Loading historical data...
Loading historical data...

Documentation

Showing up to 5 results
|